Timestamp (UTC),Height (m)
2024-03-24T11:30:00Z,0.70
2024-03-24T11:45:00Z,0.70
2024-03-24T12:00:00Z,0.70
2024-03-24T12:15:00Z,0.70
2024-03-24T12:30:00Z,0.70
2024-03-24T12:45:00Z,0.70
2024-03-24T13:00:00Z,0.70
2024-03-24T13:15:00Z,0.70
2024-03-24T13:30:00Z,0.70
2024-03-24T13:45:00Z,0.70
2024-03-24T14:00:00Z,0.70
2024-03-24T14:15:00Z,0.70
2024-03-24T14:30:00Z,0.70
2024-03-24T14:45:00Z,0.70
2024-03-24T15:00:00Z,0.70
2024-03-24T15:15:00Z,0.69
2024-03-24T15:30:00Z,0.69
2024-03-24T15:45:00Z,0.69
2024-03-24T16:00:00Z,0.69
2024-03-24T16:15:00Z,0.69
2024-03-24T16:30:00Z,0.69
2024-03-24T16:45:00Z,0.69
2024-03-24T17:00:00Z,0.69
2024-03-24T17:15:00Z,0.69
2024-03-24T17:30:00Z,0.68
2024-03-24T17:45:00Z,0.68
2024-03-24T18:00:00Z,0.68
2024-03-24T18:15:00Z,0.68
2024-03-24T18:30:00Z,0.68
2024-03-24T18:45:00Z,0.68
2024-03-24T19:00:00Z,0.68
2024-03-24T19:15:00Z,0.68
2024-03-24T19:30:00Z,0.68
2024-03-24T19:45:00Z,0.68
2024-03-24T20:00:00Z,0.68
2024-03-24T20:15:00Z,0.68
2024-03-24T20:30:00Z,0.68
2024-03-24T20:45:00Z,0.68
2024-03-24T21:00:00Z,0.68
2024-03-24T21:15:00Z,0.68
2024-03-24T21:30:00Z,0.68
2024-03-24T21:45:00Z,0.68
2024-03-24T22:00:00Z,0.68
2024-03-24T22:15:00Z,0.68
2024-03-24T22:30:00Z,0.68
2024-03-24T22:45:00Z,0.67
2024-03-24T23:00:00Z,0.67
2024-03-24T23:15:00Z,0.67
2024-03-24T23:30:00Z,0.67
2024-03-24T23:45:00Z,0.67
2024-03-25T00:00:00Z,0.67
2024-03-25T00:15:00Z,0.67
2024-03-25T00:30:00Z,0.67
2024-03-25T00:45:00Z,0.67
2024-03-25T01:00:00Z,0.67
2024-03-25T01:15:00Z,0.67
2024-03-25T01:30:00Z,0.66
2024-03-25T01:45:00Z,0.66
2024-03-25T02:00:00Z,0.66
2024-03-25T02:15:00Z,0.66
2024-03-25T02:30:00Z,0.66
2024-03-25T02:45:00Z,0.66
2024-03-25T03:00:00Z,0.66
2024-03-25T03:15:00Z,0.66
2024-03-25T03:30:00Z,0.66
2024-03-25T03:45:00Z,0.66
2024-03-25T04:00:00Z,0.66
2024-03-25T04:15:00Z,0.66
2024-03-25T04:30:00Z,0.66
2024-03-25T04:45:00Z,0.65
2024-03-25T05:00:00Z,0.66
2024-03-25T05:15:00Z,0.65
2024-03-25T05:30:00Z,0.65
2024-03-25T05:45:00Z,0.65
2024-03-25T06:00:00Z,0.65
2024-03-25T06:15:00Z,0.66
2024-03-25T06:30:00Z,0.66
2024-03-25T06:45:00Z,0.66
2024-03-25T07:00:00Z,0.66
2024-03-25T07:15:00Z,0.66
2024-03-25T07:30:00Z,0.66
2024-03-25T07:45:00Z,0.66
2024-03-25T08:00:00Z,0.66
2024-03-25T08:15:00Z,0.66
2024-03-25T08:30:00Z,0.66
2024-03-25T08:45:00Z,0.66
2024-03-25T09:00:00Z,0.66
2024-03-25T09:15:00Z,0.66
2024-03-25T09:30:00Z,0.67
2024-03-25T09:45:00Z,0.67
2024-03-25T10:00:00Z,0.67
2024-03-25T10:15:00Z,0.67
2024-03-25T10:30:00Z,0.67
2024-03-25T10:45:00Z,0.67
2024-03-25T11:00:00Z,0.67
2024-03-25T11:15:00Z,0.68
2024-03-25T11:30:00Z,0.68
2024-03-25T11:45:00Z,0.68
2024-03-25T12:00:00Z,0.68
2024-03-25T12:15:00Z,0.68
2024-03-25T12:30:00Z,0.68
2024-03-25T12:45:00Z,0.68
2024-03-25T13:00:00Z,0.67
2024-03-25T13:15:00Z,0.67
2024-03-25T13:30:00Z,0.67
2024-03-25T13:45:00Z,0.67
2024-03-25T14:00:00Z,0.67
2024-03-25T14:15:00Z,0.67
2024-03-25T14:30:00Z,0.67
2024-03-25T14:45:00Z,0.67
2024-03-25T15:00:00Z,0.67
2024-03-25T15:15:00Z,0.67
2024-03-25T15:30:00Z,0.67
2024-03-25T15:45:00Z,0.67
2024-03-25T16:00:00Z,0.67
2024-03-25T16:15:00Z,0.67
2024-03-25T16:30:00Z,0.67
2024-03-25T16:45:00Z,0.67
2024-03-25T17:00:00Z,0.67
2024-03-25T17:15:00Z,0.67
2024-03-25T17:30:00Z,0.67
2024-03-25T17:45:00Z,0.67
2024-03-25T18:00:00Z,0.67
2024-03-25T18:15:00Z,0.67
2024-03-25T18:30:00Z,0.67
2024-03-25T18:45:00Z,0.67
2024-03-25T19:00:00Z,0.66
2024-03-25T19:15:00Z,0.66
2024-03-25T19:30:00Z,0.66
2024-03-25T19:45:00Z,0.66
2024-03-25T20:00:00Z,0.66
2024-03-25T20:15:00Z,0.66
2024-03-25T20:30:00Z,0.66
2024-03-25T20:45:00Z,0.66
2024-03-25T21:00:00Z,0.66
2024-03-25T21:15:00Z,0.66
2024-03-25T21:30:00Z,0.66
2024-03-25T21:45:00Z,0.66
2024-03-25T22:00:00Z,0.66
2024-03-25T22:15:00Z,0.66
2024-03-25T22:30:00Z,0.66
2024-03-25T22:45:00Z,0.66
2024-03-25T23:00:00Z,0.66
2024-03-25T23:15:00Z,0.66
2024-03-25T23:30:00Z,0.66
2024-03-25T23:45:00Z,0.66
2024-03-26T00:00:00Z,0.66
2024-03-26T00:15:00Z,0.66
2024-03-26T00:30:00Z,0.66
2024-03-26T00:45:00Z,0.66
2024-03-26T01:00:00Z,0.66
2024-03-26T01:15:00Z,0.66
2024-03-26T01:30:00Z,0.66
2024-03-26T01:45:00Z,0.65
2024-03-26T02:00:00Z,0.65
2024-03-26T02:15:00Z,0.65
2024-03-26T02:30:00Z,0.65
2024-03-26T02:45:00Z,0.65
2024-03-26T03:00:00Z,0.65
2024-03-26T03:15:00Z,0.65
2024-03-26T03:30:00Z,0.65
2024-03-26T03:45:00Z,0.65
2024-03-26T04:00:00Z,0.65
2024-03-26T04:15:00Z,0.65
2024-03-26T04:30:00Z,0.65
2024-03-26T04:45:00Z,0.65
2024-03-26T05:00:00Z,0.65
2024-03-26T05:15:00Z,0.65
2024-03-26T05:30:00Z,0.64
2024-03-26T05:45:00Z,0.64
2024-03-26T06:00:00Z,0.64
2024-03-26T06:15:00Z,0.64
2024-03-26T06:30:00Z,0.64
2024-03-26T06:45:00Z,0.64
2024-03-26T07:00:00Z,0.64
2024-03-26T07:15:00Z,0.64
2024-03-26T07:30:00Z,0.64
2024-03-26T07:45:00Z,0.64
2024-03-26T08:00:00Z,0.64
2024-03-26T08:15:00Z,0.64
2024-03-26T08:30:00Z,0.64
2024-03-26T08:45:00Z,0.64
2024-03-26T09:00:00Z,0.64
2024-03-26T09:15:00Z,0.64
2024-03-26T09:30:00Z,0.65
2024-03-26T09:45:00Z,0.65
2024-03-26T10:00:00Z,0.65
2024-03-26T10:15:00Z,0.65
2024-03-26T10:30:00Z,0.65
2024-03-26T10:45:00Z,0.65
2024-03-26T11:00:00Z,0.65
2024-03-26T11:15:00Z,0.65
2024-03-26T11:30:00Z,0.65
2024-03-26T11:45:00Z,0.65
2024-03-26T12:00:00Z,0.65
2024-03-26T12:15:00Z,0.65
2024-03-26T12:30:00Z,0.65
2024-03-26T12:45:00Z,0.65
2024-03-26T13:00:00Z,0.65
2024-03-26T13:15:00Z,0.65
2024-03-26T13:30:00Z,0.65
2024-03-26T13:45:00Z,0.65
2024-03-26T14:00:00Z,0.65
2024-03-26T14:15:00Z,0.65
2024-03-26T14:30:00Z,0.64
2024-03-26T14:45:00Z,0.64
2024-03-26T15:00:00Z,0.64
2024-03-26T15:15:00Z,0.64
2024-03-26T15:30:00Z,0.64
2024-03-26T15:45:00Z,0.64
2024-03-26T16:00:00Z,0.64
2024-03-26T16:15:00Z,0.65
2024-03-26T16:30:00Z,0.65
2024-03-26T16:45:00Z,0.65
2024-03-26T17:00:00Z,0.65
2024-03-26T17:15:00Z,0.65
2024-03-26T17:30:00Z,0.66
2024-03-26T17:45:00Z,0.67
2024-03-26T18:00:00Z,0.68
2024-03-26T18:15:00Z,0.69
2024-03-26T18:30:00Z,0.71
2024-03-26T18:45:00Z,0.74
2024-03-26T19:00:00Z,0.78
2024-03-26T19:15:00Z,0.81
2024-03-26T19:30:00Z,0.86
2024-03-26T19:45:00Z,0.91
2024-03-26T20:00:00Z,0.96
2024-03-26T20:15:00Z,1.01
2024-03-26T20:30:00Z,1.06
2024-03-26T20:45:00Z,1.10
2024-03-26T21:00:00Z,1.14
2024-03-26T21:15:00Z,1.19
2024-03-26T21:30:00Z,1.23
2024-03-26T21:45:00Z,1.26
2024-03-26T22:00:00Z,1.29
2024-03-26T22:15:00Z,1.32
2024-03-26T22:30:00Z,1.35
2024-03-26T22:45:00Z,1.37
2024-03-26T23:00:00Z,1.39
2024-03-26T23:15:00Z,1.40
2024-03-26T23:30:00Z,1.43
2024-03-26T23:45:00Z,1.45
2024-03-27T00:00:00Z,1.47
2024-03-27T00:15:00Z,1.49
2024-03-27T00:30:00Z,1.51
2024-03-27T00:45:00Z,1.53
2024-03-27T01:00:00Z,1.54
2024-03-27T01:15:00Z,1.55
2024-03-27T01:30:00Z,1.57
2024-03-27T01:45:00Z,1.58
2024-03-27T02:00:00Z,1.59
2024-03-27T02:15:00Z,1.60
2024-03-27T02:30:00Z,1.61
2024-03-27T02:45:00Z,1.62
2024-03-27T03:00:00Z,1.63
2024-03-27T03:15:00Z,1.64
2024-03-27T03:30:00Z,1.65
2024-03-27T03:45:00Z,1.66
2024-03-27T04:00:00Z,1.67
2024-03-27T04:15:00Z,1.68
2024-03-27T04:30:00Z,1.68
2024-03-27T04:45:00Z,1.69
2024-03-27T05:00:00Z,1.70
2024-03-27T05:15:00Z,1.71
2024-03-27T05:30:00Z,1.71
2024-03-27T05:45:00Z,1.72
2024-03-27T06:00:00Z,1.73
2024-03-27T06:15:00Z,1.73
2024-03-27T06:30:00Z,1.74
2024-03-27T06:45:00Z,1.74
2024-03-27T07:00:00Z,1.75
2024-03-27T07:15:00Z,1.75
2024-03-27T07:30:00Z,1.76
2024-03-27T07:45:00Z,1.76
2024-03-27T08:00:00Z,1.77
2024-03-27T08:15:00Z,1.77
2024-03-27T08:30:00Z,1.78
2024-03-27T08:45:00Z,1.78
2024-03-27T09:00:00Z,1.78
2024-03-27T09:15:00Z,1.79
2024-03-27T09:30:00Z,1.79
2024-03-27T09:45:00Z,1.79
2024-03-27T10:00:00Z,1.80
2024-03-27T10:15:00Z,1.80
2024-03-27T10:30:00Z,1.80
2024-03-27T10:45:00Z,1.80
2024-03-27T11:00:00Z,1.81
2024-03-27T11:15:00Z,1.81
2024-03-27T11:30:00Z,1.81
2024-03-27T11:45:00Z,1.81
2024-03-27T12:00:00Z,1.81
2024-03-27T12:15:00Z,1.81
2024-03-27T12:30:00Z,1.81
2024-03-27T12:45:00Z,1.81
2024-03-27T13:00:00Z,1.81
2024-03-27T13:15:00Z,1.81
2024-03-27T13:30:00Z,1.81
2024-03-27T13:45:00Z,1.80
2024-03-27T14:00:00Z,1.80
2024-03-27T14:15:00Z,1.80
2024-03-27T14:30:00Z,1.80
2024-03-27T14:45:00Z,1.79
2024-03-27T15:00:00Z,1.79
2024-03-27T15:15:00Z,1.79
2024-03-27T15:30:00Z,1.78
2024-03-27T15:45:00Z,1.78
2024-03-27T16:00:00Z,1.77
2024-03-27T16:15:00Z,1.77
2024-03-27T16:30:00Z,1.76
2024-03-27T16:45:00Z,1.76
2024-03-27T17:00:00Z,1.75
2024-03-27T17:15:00Z,1.75
2024-03-27T17:30:00Z,1.74
2024-03-27T17:45:00Z,1.74
2024-03-27T18:00:00Z,1.73
2024-03-27T18:15:00Z,1.73
2024-03-27T18:30:00Z,1.72
2024-03-27T18:45:00Z,1.71
2024-03-27T19:00:00Z,1.71
2024-03-27T19:15:00Z,1.70
2024-03-27T19:30:00Z,1.69
2024-03-27T19:45:00Z,1.69
2024-03-27T20:00:00Z,1.68
2024-03-27T20:15:00Z,1.67
2024-03-27T20:30:00Z,1.67
2024-03-27T20:45:00Z,1.66
2024-03-27T21:00:00Z,1.65
2024-03-27T21:15:00Z,1.64
2024-03-27T21:30:00Z,1.64
2024-03-27T21:45:00Z,1.63
2024-03-27T22:00:00Z,1.62
2024-03-27T22:15:00Z,1.61
2024-03-27T22:30:00Z,1.60
2024-03-27T22:45:00Z,1.60
2024-03-27T23:00:00Z,1.59
2024-03-27T23:15:00Z,1.58
2024-03-27T23:30:00Z,1.57
2024-03-27T23:45:00Z,1.56
2024-03-28T00:00:00Z,1.55
2024-03-28T00:15:00Z,1.54
2024-03-28T00:30:00Z,1.54
2024-03-28T00:45:00Z,1.53
2024-03-28T01:00:00Z,1.52
2024-03-28T01:15:00Z,1.52
2024-03-28T01:30:00Z,1.52
2024-03-28T01:45:00Z,1.52
2024-03-28T02:00:00Z,1.53
2024-03-28T02:15:00Z,1.54
2024-03-28T02:30:00Z,1.55
2024-03-28T02:45:00Z,1.56
2024-03-28T03:00:00Z,1.58
2024-03-28T03:15:00Z,1.60
2024-03-28T03:30:00Z,1.61
2024-03-28T03:45:00Z,1.63
2024-03-28T04:00:00Z,1.64
2024-03-28T04:15:00Z,1.65
2024-03-28T04:30:00Z,1.66
2024-03-28T04:45:00Z,1.68
2024-03-28T05:00:00Z,1.69
2024-03-28T05:15:00Z,1.70
2024-03-28T05:30:00Z,1.71
2024-03-28T05:45:00Z,1.71
2024-03-28T06:00:00Z,1.72
2024-03-28T06:15:00Z,1.73
2024-03-28T06:30:00Z,1.74
2024-03-28T06:45:00Z,1.75
2024-03-28T07:00:00Z,1.76
2024-03-28T07:15:00Z,1.77
2024-03-28T07:30:00Z,1.78
2024-03-28T07:45:00Z,1.78
2024-03-28T08:00:00Z,1.79
2024-03-28T08:15:00Z,1.80
2024-03-28T08:30:00Z,1.81
2024-03-28T08:45:00Z,1.82
2024-03-28T09:00:00Z,1.83
2024-03-28T09:15:00Z,1.84
2024-03-28T09:30:00Z,1.85
2024-03-28T09:45:00Z,1.86
2024-03-28T10:00:00Z,1.87
2024-03-28T10:15:00Z,1.88
2024-03-28T10:30:00Z,1.88
2024-03-28T10:45:00Z,1.90
2024-03-28T11:00:00Z,1.91
2024-03-28T11:15:00Z,1.91
2024-03-28T11:30:00Z,1.92
2024-03-28T11:45:00Z,1.93
2024-03-28T12:00:00Z,1.94
2024-03-28T12:15:00Z,1.95
2024-03-28T12:30:00Z,1.95
2024-03-28T12:45:00Z,1.97
2024-03-28T13:00:00Z,1.97
2024-03-28T13:15:00Z,1.98
2024-03-28T13:30:00Z,1.99
2024-03-28T13:45:00Z,1.99
2024-03-28T14:00:00Z,2.00
2024-03-28T14:15:00Z,2.00
2024-03-28T14:30:00Z,2.00
2024-03-28T14:45:00Z,2.01
2024-03-28T15:00:00Z,2.01
2024-03-28T15:15:00Z,2.01
2024-03-28T15:30:00Z,2.02
2024-03-28T15:45:00Z,2.02
2024-03-28T16:00:00Z,2.02
2024-03-28T16:15:00Z,2.02
2024-03-28T16:30:00Z,2.02
2024-03-28T16:45:00Z,2.02
2024-03-28T17:00:00Z,2.02
2024-03-28T17:15:00Z,2.02
2024-03-28T17:30:00Z,2.02
2024-03-28T17:45:00Z,2.02
2024-03-28T18:00:00Z,2.01
2024-03-28T18:15:00Z,2.01
2024-03-28T18:30:00Z,2.01
2024-03-28T18:45:00Z,2.01
2024-03-28T19:00:00Z,2.00
2024-03-28T19:15:00Z,2.00
2024-03-28T19:30:00Z,2.00
2024-03-28T19:45:00Z,2.00
2024-03-28T20:00:00Z,2.00
2024-03-28T20:15:00Z,2.00
2024-03-28T20:30:00Z,2.00
2024-03-28T20:45:00Z,2.00
2024-03-28T21:00:00Z,1.99
2024-03-28T21:15:00Z,1.99
2024-03-28T21:30:00Z,1.99
2024-03-28T21:45:00Z,1.99
2024-03-28T22:00:00Z,1.99
2024-03-28T22:15:00Z,1.99
2024-03-28T22:30:00Z,1.99
2024-03-28T22:45:00Z,1.99
2024-03-28T23:00:00Z,1.99
2024-03-28T23:15:00Z,1.99
2024-03-28T23:30:00Z,1.99
2024-03-28T23:45:00Z,1.99
2024-03-29T00:00:00Z,1.99
2024-03-29T00:15:00Z,1.99
2024-03-29T00:30:00Z,1.99
2024-03-29T00:45:00Z,1.99
2024-03-29T01:00:00Z,1.99
2024-03-29T01:15:00Z,1.99
2024-03-29T01:30:00Z,1.99
2024-03-29T01:45:00Z,1.99
2024-03-29T02:00:00Z,1.99
2024-03-29T02:15:00Z,1.99
2024-03-29T02:30:00Z,1.99
2024-03-29T02:45:00Z,2.00
2024-03-29T03:00:00Z,2.00
2024-03-29T03:15:00Z,1.99
2024-03-29T03:30:00Z,2.00
2024-03-29T03:45:00Z,1.99
2024-03-29T04:00:00Z,1.99
2024-03-29T04:15:00Z,1.99
2024-03-29T04:30:00Z,1.99
2024-03-29T04:45:00Z,1.99
2024-03-29T05:00:00Z,1.99
2024-03-29T05:15:00Z,1.99
2024-03-29T05:30:00Z,1.98
2024-03-29T05:45:00Z,1.98
2024-03-29T06:00:00Z,1.98
2024-03-29T06:15:00Z,1.98
2024-03-29T06:30:00Z,1.97
2024-03-29T06:45:00Z,1.97
2024-03-29T07:00:00Z,1.96
2024-03-29T07:15:00Z,1.96
2024-03-29T07:30:00Z,1.95
2024-03-29T07:45:00Z,1.95
2024-03-29T08:00:00Z,1.94
2024-03-29T08:15:00Z,1.94
2024-03-29T08:30:00Z,1.94
2024-03-29T08:45:00Z,1.93
2024-03-29T09:00:00Z,1.92
2024-03-29T09:15:00Z,1.92
2024-03-29T09:30:00Z,1.91
2024-03-29T09:45:00Z,1.90
2024-03-29T10:00:00Z,1.90
2024-03-29T10:15:00Z,1.89
2024-03-29T10:30:00Z,1.88
2024-03-29T10:45:00Z,1.87
2024-03-29T11:00:00Z,1.86